SPIRALE B

Last updated on Jan. 18, 2020, 4:39 a.m. UTC

1 33752U 09008D   20017.58820983  .00000846  00000-0  19645-3 0  9996
2 33752   1.8773 230.2208 6914186 291.4862  11.1515  2.75164217100563
UTC
Height (km)
Latitude
Longitude
Inclination
Orbital Period
UTC large
Height (km)
Speed (km/s)
/
Latitude / Longitude
Inclination (degrees)
Orbital Period (minutes)
Azimuth
Elevation
Range (km)
Doppler Factor
iOS Compass Heading
iOS Angle

Next 30 passes for location: Hong Kong

Rise time Rise Azimuth (degrees) Set time Set Azimuth (degrees) Duration Max altitude (degrees)

No matching passes for this satellites